Regional Weather Roundup
Issued by NWS

Home | Current Version | Previous Version | Graphics & Text | Print | Product List | Glossary On
Versions: 1 2 3 4 5 6 7 8 9 10 11 12 13 14 15 16 17 18 19 20 21 22 23 24 25 26 27
000
ASUS45 KBOI 171910
RWRID

IDAHO REGIONAL WEATHER ROUNDUP
NATIONAL WEATHER SERVICE BOISE ID
1200 PM MST SUN DEC 17 2017

NOTE: "FAIR" INDICATES FEW OR NO CLOUDS BELOW 12000 FEET
WITH NO SIGNIFICANT WEATHER AND/OR OBSTRUCTIONS TO VISIBILITY

IDZ012-014-172000-
SOUTHWEST IDAHO


CITY           SKY/WX    TMP DP  RH WIND       PRES   REMARKS
BOISE          SUNNY     34  22  61 E3        30.26F
CALDWELL       CLOUDY    34  23  64 E5        30.28F WCI  30
MOUNTAIN HOME  SUNNY     33  25  73 CALM      30.26F
$$

IDZ016-017-172000-
SOUTHCENTRAL IDAHO


CITY           SKY/WX    TMP DP  RH WIND       PRES   REMARKS
BURLEY         SUNNY     31  18  58 W5        30.23F WCI  26
JEROME         PTSUNNY   28  20  71 S9        30.23F WCI  19
TWIN FALLS     PTSUNNY   32  20  61 S9        30.22F WCI  24
$$

IDZ019>023-172000-
SOUTHEAST IDAHO


CITY           SKY/WX    TMP DP  RH WIND       PRES   REMARKS
IDAHO FALLS    CLOUDY    22  21  96 SW12      30.22S FOG     WCI  10
POCATELLO      CLOUDY    25  19  78 SW9       30.25S WCI  15
REXBURG        CLOUDY    19  18  95 CALM      30.21R
$$

IDZ006-010-011-018-031-032-172000-
CENTRAL IDAHO MOUNTAINS


CITY           SKY/WX    TMP DP  RH WIND       PRES   REMARKS
MCCALL         CLOUDY    19  13  77 CALM      30.16R
HAILEY         PTSUNNY   19  19 100 SE10      30.18F WCI   8
STANLEY          N/A     10   5  80 N5        30.13F WCI   2
SALMON         CLOUDY    18  12  77 CALM      30.21F
CHALLIS        CLOUDY    22  11  62 NE3       30.15F
$$

IDZ002-004-006-007-026-172000-
NORTHERN IDAHO


CITY           SKY/WX    TMP DP  RH WIND       PRES   REMARKS
LEWISTON       LGT SNOW  30  28  92 CALM      30.21F FOG
LOWELL           N/A     31  26  82 CALM      30.29F
COEUR D`ALENE  LGT SNOW  30  28  93 S8        30.13F FOG     WCI  23
MULLAN PASS    FOG       23  19  85 SW8       29.97F VSB 3/4 WCI  14
$$




USA.gov is the U.S. government's official web portal to all federal, state and local government web resources and services.